NAVSTAR 75 (USA 265)    
1 41019U 15062A   19258.30176281  .00000020  00000-0  00000+0 0  9993
2 41019  55.2141 127.6851 0049180 205.6809 154.1735  2.00564748 28357
ATLAS 5 CENTAUR R/B     
1 41020U 15062B   19257.69935355  .00000019  00000-0  00000+0 0  9999
2 41020  55.5347 133.1779 0197630 306.9553  51.3518  1.90409102 26935